www.pogodaiklimat.ru
ПОГОДА в Уайт-Плейнсе
Время
(UTC), дата
07:56 12.12
08:56 12.12
09:56 12.12
10:56 12.12
11:56 12.12
12:56 12.12
13:56 12.12
14:56 12.12
15:56 12.12
16:56 12.12
17:56 12.12
18:56 12.12
19:56 12.12
20:56 12.12
21:56 12.12
22:56 12.12
23:56 12.12
00:56 12.12
01:56 12.12
02:56 12.12
03:56 12.12
04:56 13.12
05:56 13.12
06:56 13.12
07:56 13.12
08:56 13.12
09:56 13.12
10:56 13.12
11:56 13.12
12:56 13.12
13:56 13.12
14:56 13.12
15:03 13.12
15:56 13.12
16:56 13.12
17:56 13.12
18:56 13.12
19:20 13.12
19:56 13.12
20:56 13.12
21:56 13.12
22:05 13.12
22:31 13.12
22:56 13.12
23:56 13.12
00:56 13.12
01:56 13.12
02:56 13.12
Ветер
(напр.,м/с)
Видим. Явления Облачность Т
(С)
Тd
(С)
f
(%)
Тe
(С)
Тes
(С)
Комфортность P
(гПа)
Po
(гПа)
Тmin
(С)
Tmax
(С)
R
(мм)
R24
(мм)
S
(см)
СЗ 5 16 км ясно -3.9 -12.2 52 -11 -11 1036.5 1021.8
З 4 16 км ясно -4.4 -12.2 54 -10 -10 1037.4 1022.4
З 4 16 км ясно -4.4 -12.8 52 -10 -10 1038.5 1023.8
СЗ 6 16 км ясно -5.0 -12.2 57 -13 -13 1039.2 1024.4 -5.0 -2.2 0.5
СЗ 5 16 км ясно -5.0 -12.2 57 -12 -12 1039.9 1025.1
С 4 16 км ясно -3.9 -12.2 52 -10 -10 1040.3 1025.4
СЗ 3 16 км ясно -3.3 -12.2 50 -8 -7 1040.8 1025.8
С 3 16 км ясно -1.7 -12.2 45 -6 -4 1040.8 1026.1
нст 3 16 км ясно -1.1 -11.1 47 -5 -2 1039.9 1025.1
С 3 16 км ясно -0.6 -11.7 43 -5 -2 1039.4 1024.8 -5.0 -0.6
СЗ 1 16 км ясно 0.0 -11.7 41 -2 +2 1039.1 1024.4
ЮВ 1 16 км ясно 0.0 -12.2 39 -2 +1 1039.1 1024.1
Ю 2 16 км ясно -1.1 -11.1 47 -5 -4 1039.2 1024.4
0 16 км ясно -1.7 -10.6 51 -2 -2 1039.6 1024.8
0 16 км ясно -2.2 -9.4 58 -3 -3 1039.6 1024.8
ЮВ 1 16 км ясно -2.8 -10.0 58 -6 -6 1039.4 1024.4 -3.3 +0.6
0 16 км ясно -3.3 -8.3 68 -4 -4 1039.3 1024.4
ЮВ 1 16 км ясно -2.8 -8.3 66 -6 -6 1039.1 1024.1
ЮВ 1 16 км ясно -3.3 -8.3 68 -6 -6 1038.6 1023.8
0 16 км ясно -3.3 -7.8 71 -4 -4 1038.1 1023.1
0 16 км 5/5 840 м -2.8 -6.7 74 -4 -4 1036.9 1022.1
0 16 км 8/8 900 м -2.8 -6.7 74 -4 -4 1036.1 1021.4 -3.9 -1.7
0 16 км 8/8 1050 м -1.7 -6.1 72 -3 -3 1035.5 1020.8
СВ 1 16 км 8/8 1050 м -1.1 -5.6 71 -4 -4 1034.4 1019.8
В 3 16 км 5/5 1020 м -1.1 -4.4 78 -6 -6 1033.5 1018.7
В 3 16 км 5/5 1500 м -0.6 -3.3 82 -6 -6 1032.7 1018.1
В 3 16 км 8/8 930 м 0.0 -2.8 81 -5 -5 1032.1 1017.4
В 3 16 км 8/8 720 м 0.0 -2.2 85 -5 -5 1031.4 1016.7 -2.8 0.0
В 2 16 км 8/8 720 м +1.1 -1.1 85 -3 -3 1031.2 1016.4
В 3 16 км 8/8 960 м +2.2 -0.6 82 -2 -2 1030.7 1016.1
В 3 16 км 8/8 600 м +3.3 +0.6 82 -1 -1 1030.1 1015.4
В 3 16 км 8/8 600 м +3.9 +0.6 79 -0 0 1028.9 1014.4
В 4 16 км 8/8 330 м +3.9 +1.1 82 -1 -1 1014.4
В 3 16 км 10/10 270 м +4.4 +1.7 83 0 0 1027.4 1013.1
В 3 16 км 8/8 210 м +4.4 +2.2 86 +1 +1 1026.1 1011.7 0.0 +4.4
В 3 11 км слабая морось 10/10 240 м +5.0 +3.3 89 +1 +1 1025.2 1010.7
В 3 10 км слабый дождь, дымка 10/10 240 м +5.0 +3.9 93 +1 +1 1024.1 1009.7
В 3 3 км слабый дождь, дымка 10/10 150 м +5.6 +4.4 92 +2 +2 1009.7
В 3 2 км слабый дождь, дымка 10/10 90 м +5.6 +5.0 96 +2 +2 1023.5 1009.4
В 3 3 км слабый дождь, дымка 10/10 60 м +6.1 +5.6 97 +2 +2 1022.9 1008.7
В 4 2 км слабый дождь, дымка 10/10 60 м +6.1 +5.6 97 +2 +2 1021.7 1007.4
В 4 2 км слабый дождь, дымка 10/10 30 м +6.1 +6.1 100 +2 +2 1007.4
В 4 800 м слабый дождь, дымка 10/10 30 м +6.7 +6.1 96 +3 +3 1007.1
В 4 800 м слабый дождь, дымка ?/? +6.7 +6.7 100 +2 +2 1020.7 1006.4 +4.4 +6.7
В 2 2 км слабый дождь, дымка 10/10 60 м +7.2 +7.2 100 +4 +4 1019.7 1005.7
В 4 2 км слабый дождь, дымка 10/10 60 м +7.8 +7.2 96 +4 +4 1018.0 1004.0
В 4 3 км слабый дождь, дымка ?/? +8.3 +7.8 97 +5 +5 1016.4 1002.4
СВ 4
{8}
3 км дождь, дымка 10/10 90 м +8.9 +8.9 100 +5 +5 1014.5 1000.7
Местоположение метеостанции Westchester County Airport: широта 41.0624 долгота -73.7046 высота над уровнем моря 112 м.
В архиве по умолчанию представлена погода в Уайт-Плейнсе за последние 1-2 суток. Обновление информации о фактической погоде в базе происходит ежечасно! Архивные данные за месяц целиком и за предыдущие месяцы Вы можете получить, выбрав интересующий диапазон дат из раскрывающегося списка и нажав кнопку "Ввод!".
Внимание! Архив погоды МЕТАР в базе сайта по станциям, не включенным в климатический монитор, хранится не более 60 дней. Нет смысла пытаться выбрать более раннюю дату.
*Определитесь, кто Вы:
Внимание! Время в таблицах - всемирное. Для получения местного времени необходимо прибавить поправку, которая равна ч.
Смотрите также архив погоды в соседних городах и на ближайших метеорологических станциях:
Партнеры нашего сайта:      
Пояснения к столбцам:
  • Ветер - указаны скорость ветра в м/с - средняя за 10 мин, порывы в срок и между сроками (в фигурных скобках) и направление, откуда дует ветер: С - северный,
  • СВ - северо-восточный, В - восточный, ЮВ - юго-восточный, Ю - южный, ЮЗ - юго-западный, З - западный, СЗ - северо-западный.
  • Видимость - горизонтальная дальность видимости в метрах или километрах. При видимости от 1 до 10 км при отсутствии осадков обычно наблюдается дымка, при ухудшении видимости до 1 км и менее - туман. В сухую погоду видимость может ухудшаться дымом, пылью или мглою.
  • Явления - указаны атмосферные явления, наблюдавшиеся в срок или в последний час перед сроком; фигурными скобками обозначены явления, наблюдавшиеся между сроками (за 1-3 часа до срока); квадратными скобками обозначены град или гололедные отложения с указанием их диаметра в мм.
  • Облачность - указаны через наклонную черту общая и нижняя облачность в баллах и высота нижней границы облаков в метрах; квадратными скобками обозначены формы облаков: Ci - перистые, Cs - перисто-слоистые, Cc - перисто-кучевые, Ac - высококучевые, As - высокослоистые, Sc - слоисто-кучевые, Ns - слоисто-дождевые, Cu - кучевые, Cb - кучево-дождевые. Подробнее классификацию облаков см. в Атласе облаков (PDF).
  • T - Температура воздуха - температура, измеренная на высоте 2 м над землей.
  • Td - Температура точки росы - температура, при понижении до которой содержащийся в воздухе водяной пар достигнет насыщения.
  • f - Относительная влажность воздуха - влажноcть воздуха, измеренная на высоте 2 м над землей.
  • Te - Эффективная температура - температура, которую ощущает одетый по сезону человек в тени. Характеристика душности погоды. При расчете учитывается влияние влажности воздуха и скорости ветра на теплоощущения человека.
  • Tes - Эффективная температура на солнце - температура, которую ощущает человек, с поправкой на солнечный нагрев. Характеристика знойности погоды. Зависит от высоты солнца над горизонтом, облачности и скорости ветра. Ночью, в пасмурную погоду, а также при ветре 12 м/с и более поправка равна нулю.
  • P - Атмосферное давление - приведенное к уровню моря атмосферное давление.
  • Po - Атмосферное давление - измеренное на уровне метеостанции атмосферное давление.
  • Tmin - Минимальная температура - минимум температуры воздуха на высоте 2 м над землей.
  • Tmax - Максимальная температура - максимум температуры воздуха на высоте 2 м над землей.
  • R - Количество осадков - Количество выпавших осадков за период времени, мм. При наведении курсора мыши на число - период времени, за который выпало указанное количество осадков.
  • R24 - Количество осадков - Количество выпавших осадков за 24 часа, мм.
  • S - Снежный покров - Высота снежного покрова, см. При наведении курсора мыши на число - состояние снежного покрова и степень покрытия местности в баллах.